FW2982 Weather Reports


time (UTC)temp
C
wind
direction
speed
KPH
gust
KPH
rain 1hr
cm
rain 24hr
cm
rain mn
cm
humidity
%
barometer
mb
20260831042232 21 92 0.0 0.0 0.00 1.27 0.00 96 1016.9
20260831041731 21 92 0.0 0.0 0.00 1.27 0.00 96 1016.9
20260831041232 21 92 0.0 0.0 0.00 1.27 0.00 96 1017.0
20260831041013 21 92 0.0 0.0 0.00 1.27 0.00 96 1017.0
20260831040232 21 92 0.0 0.0 0.00 1.27 0.00 96 1017.0
20260831035732 21 92 0.0 0.0 0.00 1.27 1.27 96 1017.1
20260831035232 21 92 0.0 0.0 0.00 1.27 1.27 96 1017.2
20260831034732 21 92 0.0 0.0 0.00 1.27 1.27 96 1017.2
20260831034232 21 92 0.0 0.0 0.00 1.27 1.27 96 1017.1
20260831033732 21 92 0.0 0.0 0.00 1.27 1.27 96 1017.1
20260831033233 21 92 0.0 0.0 0.00 1.27 1.27 96 1017.1
20260831032730 21 92 0.0 0.0 0.00 1.27 1.27 96 1017.1
20260831032233 21 92 0.0 0.0 0.00 1.27 1.27 96 1017.0
20260831031732 21 92 0.0 0.0 0.00 1.27 1.27 96 1016.9
20260831031535 21 92 0.0 0.0 0.00 1.27 1.27 96 1017.1
20260831031247 21 92 0.0 0.0 0.00 1.27 1.27 96 1017.0
20260831030231 21 92 0.0 0.0 0.00 1.27 1.27 96 1017.1
20260831025731 21 92 0.0 0.0 0.00 1.27 1.27 95 1017.1
20260831025231 21 92 0.0 0.0 0.00 1.27 1.27 95 1017.2
20260831024731 21 92 0.0 0.0 0.00 1.27 1.27 95 1017.2
20260831024233 21 92 0.0 0.0 0.03 1.27 1.27 95 1017.2
20260831023731 21 92 0.0 0.0 0.03 1.27 1.27 95 1017.3
20260831023232 21 92 0.0 0.0 0.05 1.27 1.27 95 1017.5
20260831022731 21 92 0.0 0.0 0.05 1.27 1.27 95 1017.4
20260831022513 21 92 0.0 0.0 0.08 1.27 1.27 95 1017.5
20260831021731 21 92 0.0 0.0 0.10 1.27 1.27 95 1017.5
20260831021232 21 92 0.0 0.0 0.10 1.27 1.27 95 1017.4
20260831021011 21 92 0.0 0.0 0.13 1.27 1.27 95 1017.4
20260831020231 21 92 0.0 1.6 0.15 1.27 1.27 95 1017.6
20260831015732 21 92 0.0 1.6 0.18 1.09 1.27 95 1017.6
20260831015232 21 92 0.0 0.0 0.20 1.09 1.27 95 1017.5
20260831015013 21 92 0.0 0.0 0.25 1.09 1.27 95 1017.5
20260831014511 21 92 0.0 0.0 0.25 1.09 1.24 95 1017.5
20260831013708 21 92 0.0 0.0 0.30 1.09 1.24 95 1017.6
20260831013208 21 92 0.0 1.6 0.30 1.09 1.22 95 1017.5
20260831012946 21 92 0.0 1.6 0.36 1.09 1.22 95 1017.5
20260831012445 21 92 0.0 1.6 0.38 1.09 1.19 95 1017.6
20260831011704 21 92 0.0 0.0 0.41 1.09 1.17 95 1017.5
20260831011203 21 92 0.0 0.0 0.48 1.09 1.14 95 1017.4
20260831010941 21 92 0.0 0.0 0.53 1.09 1.12 95 1017.4
20260831010203 21 92 0.0 0.0 0.58 1.09 1.12 95 1017.2
20260831005942 21 92 0.0 0.0 0.64 0.51 1.07 94 1017.1
20260831005441 21 92 0.0 0.0 0.71 0.51 1.04 94 1017.1
20260831004703 22 92 0.0 0.0 0.76 0.51 1.02 94 1017.0
20260831004203 22 92 0.0 0.0 0.84 0.51 0.97 94 1017.0
20260831003702 22 92 0.0 0.0 0.89 0.51 0.94 94 1017.0
20260831003202 22 92 0.0 3.2 0.91 0.51 0.89 94 1017.0
20260831002705 22 92 0.0 3.2 0.86 0.51 0.84 94 1017.0
20260831002201 21 92 0.0 1.6 0.81 0.51 0.79 94 1017.0
20260831001702 22 92 0.0 3.2 0.76 0.51 0.74 94 1017.0
20260831001203 22 92 0.0 3.2 0.69 0.51 0.66 93 1017.0
20260831000703 21 92 0.0 4.8 0.61 0.51 0.58 93 1017.0
20260831000203 21 92 1.6 11.3 0.53 0.51 0.53 92 1017.0
20260830235703 22 79 1.6 11.3 0.43 0.00 0.41 92 1017.2
20260830235249 23 262 1.6 8.0 0.13 0.00 0.13 88 1018.5
20260830235235 22 72 4.8 11.3 0.36 0.00 0.33 91 1017.7
20260830234958 22 59 3.2 6.4 0.25 0.00 0.23 90 1018.3
20260830233702 23 266 3.2 19.3 0.05 0.00 0.05 85 1018.0
20260830233202 25 288 6.4 19.3 0.00 0.00 0.00 83 1017.8
20260830232703 25 326 3.2 4.8 0.00 0.00 0.00 83 1017.6
20260830232203 25 326 1.6 3.2 0.00 0.00 0.00 83 1017.1
20260830231703 25 47 0.0 1.6 0.00 0.00 0.00 82 1016.9
20260830231441 25 47 0.0 1.6 0.00 0.00 0.00 82 1016.7
20260830230640 25 45 0.0 3.2 0.00 0.00 0.00 83 1016.7
20260830230417 25 47 0.0 3.2 0.00 0.00 0.00 83 1016.7
20260830225639 26 44 0.0 6.4 0.00 0.00 0.00 81 1016.6
20260830225138 26 44 1.6 6.4 0.00 0.00 0.00 80 1016.6
20260830224635 26 25 0.0 4.8 0.00 0.00 0.00 81 1016.6
20260830224139 26 86 0.0 8.0 0.00 0.00 0.00 80 1016.6
20260830223635 26 204 1.6 8.0 0.00 0.00 0.00 79 1016.7
20260830223414 27 217 0.0 3.2 0.00 0.00 0.00 79 1016.8
20260830222635 27 226 0.0 4.8 0.00 0.00 0.00 79 1016.8
20260830222135 27 226 0.0 6.4 0.00 0.00 0.00 77 1016.7
20260830221635 27 220 1.6 6.4 0.00 0.00 0.00 76 1016.5
20260830221135 28 358 1.6 3.2 0.00 0.00 0.00 77 1016.4
20260830220634 28 183 0.0 3.2 0.00 0.00 0.00 76 1016.3
20260830220134 28 183 0.0 3.2 0.00 0.00 0.00 76 1016.2
20260830215635 28 52 0.0 1.6 0.00 0.00 0.00 75 1016.2
20260830215134 28 52 0.0 3.2 0.00 0.00 0.00 75 1016.1
20260830214634 28 52 0.0 3.2 0.00 0.00 0.00 76 1016.1
20260830214412 28 56 0.0 1.6 0.00 0.00 0.00 77 1016.2
20260830213633 28 56 0.0 3.2 0.00 0.00 0.00 78 1016.2
20260830213410 28 56 0.0 3.2 0.00 0.00 0.00 76 1016.4
20260830212633 28 51 0.0 1.6 0.00 0.00 0.00 76 1016.3
20260830212129 28 51 0.0 1.6 0.00 0.00 0.00 75 1016.2
20260830211630 28 51 0.0 1.6 0.00 0.00 0.00 78 1016.1
20260830211406 28 51 0.0 4.8 0.00 0.00 0.00 77 1016.1
20260830210628 28 51 0.0 4.8 0.00 0.00 0.00 77 1016.2
20260830210128 28 128 0.0 1.6 0.00 0.00 0.00 76 1016.3
20260830205627 29 127 0.0 1.6 0.00 0.00 0.00 75 1016.3
20260830205126 28 127 0.0 1.6 0.00 0.00 0.00 75 1016.2
20260830204607 28 127 0.0 1.6 0.00 0.00 0.00 75 1016.3
20260830204105 28 127 0.0 1.6 0.00 0.00 0.00 76 1016.2
20260830203842 28 125 0.0 1.6 0.00 0.00 0.00 75 1016.3
20260830203108 28 125 0.0 4.8 0.00 0.00 0.00 74 1016.4
20260830202603 29 127 0.0 4.8 0.00 0.00 0.00 72 1016.5
20260830202341 30 234 0.0 4.8 0.00 0.00 0.00 71 1016.5
20260830201603 30 303 0.0 4.8 0.00 0.00 0.00 70 1016.6
20260830201103 30 303 1.6 4.8 0.00 0.00 0.00 67 1016.6
20260830200633 30 358 3.2 6.4 0.00 0.00 0.00 71 1016.6
20260830200623 31 224 1.6 6.4 0.00 0.00 0.00 69 1016.6
20260830195602 30 142 1.6 6.4 0.00 0.00 0.00 69 1016.5
20260830195338 30 75 1.6 6.4 0.00 0.00 0.00 66 1016.7
20260830194601 30 285 0.0 8.0 0.00 0.00 0.00 67 1016.7
20260830194058 31 243 3.2 8.0 0.00 0.00 0.00 64 1016.7
20260830193557 30 238 1.6 9.7 0.00 0.00 0.00 67 1016.7
20260830193058 30 228 3.2 9.7 0.00 0.00 0.00 66 1016.7
20260830192857 31 144 1.6 4.8 0.00 0.00 0.00 69 1016.8
20260830192853 30 265 1.6 6.4 0.00 0.00 0.00 69 1016.7
20260830191556 31 300 1.6 9.7 0.00 0.00 0.00 66 1016.8
20260830191055 31 285 3.2 9.7 0.00 0.00 0.00 67 1017.0
20260830190618 31 240 1.6 6.4 0.00 0.00 0.00 66 1017.2
20260830190610 30 331 1.6 4.8 0.00 0.00 0.00 68 1017.1
20260830185619 31 214 3.2 8.0 0.00 0.00 0.00 67 1017.6
20260830185610 31 0 3.2 8.0 0.00 0.00 0.00 64 1017.3
20260830184552 30 288 0.0 8.0 0.00 0.00 0.00 66 1017.6
20260830184050 31 251 3.2 6.4 0.00 0.00 0.00 66 1017.7
20260830183549 31 281 1.6 8.0 0.00 0.00 0.00 64 1017.8
20260830183050 30 104 1.6 8.0 0.00 0.00 0.00 69 1017.8
20260830182546 30 172 3.2 8.0 0.00 0.00 0.00 69 1017.9
20260830182325 30 83 3.2 8.0 0.00 0.00 0.00 68 1017.9
20260830181547 31 52 1.6 9.7 0.00 0.00 0.00 67 1018.0
20260830181048 30 282 3.2 9.7 0.00 0.00 0.00 72 1018.2
20260830180548 30 182 1.6 6.4 0.00 0.00 0.00 71 1018.3
20260830180046 30 302 1.6 6.4 0.00 0.00 0.00 68 1018.4
20260830175545 30 35 1.6 4.8 0.00 0.00 0.00 70 1018.5
20260830175044 30 237 1.6 6.4 0.00 0.00 0.00 72 1018.6
20260830174604 29 221 1.6 4.8 0.00 0.00 0.00 72 1018.8
20260830174556 30 219 4.8 6.4 0.00 0.00 0.00 71 1018.8
20260830173536 29 226 1.6 8.0 0.00 0.00 0.00 75 1018.8
20260830173314 28 210 1.6 8.0 0.00 0.00 0.00 74 1018.8
20260830172533 28 20 1.6 4.8 0.00 0.00 0.00 77 1019.0
20260830172034 27 11 1.6 4.8 0.00 0.00 0.00 78 1019.1
20260830171531 27 0 1.6 3.2 0.00 0.00 0.00 79 1019.2
20260830171032 27 0 1.6 3.2 0.00 0.00 0.00 77 1019.3
20260830170534 27 353 0.0 4.8 0.00 0.00 0.00 77 1019.4
20260830170031 27 0 0.0 6.4 0.00 0.00 0.00 76 1019.5
20260830165531 27 23 1.6 6.4 0.00 0.00 0.00 76 1019.5
20260830165031 27 8 1.6 4.8 0.00 0.00 0.00 76 1019.5
20260830164531 27 111 1.6 4.8 0.00 0.00 0.00 76 1019.5
20260830164033 28 219 0.0 9.7 0.00 0.00 0.00 74 1019.5
20260830163531 28 216 3.2 9.7 0.00 0.00 0.00 72 1019.6
20260830163055 29 120 1.6 4.8 0.00 0.00 0.00 72 1019.5
20260830163046 28 321 3.2 8.0 0.00 0.00 0.00 71 1019.5
20260830162031 28 241 0.0 4.8 0.00 0.00 0.00 75 1019.6
20260830161534 28 238 1.6 6.4 0.00 0.00 0.00 75 1019.6
20260830161030 29 243 1.6 8.0 0.00 0.00 0.00 75 1019.7
20260830160529 28 223 0.0 8.0 0.00 0.00 0.00 76 1019.7
20260830160026 27 63 1.6 4.8 0.00 0.00 0.00 76 1019.9
20260830160017 28 175 3.2 4.8 0.00 0.00 0.00 76 1019.7
20260830155004 27 266 3.2 4.8 0.00 0.00 0.00 77 1019.9
20260830154743 27 193 1.6 4.8 0.00 0.00 0.00 76 1019.8
20260830154004 28 289 1.6 4.8 0.00 0.00 0.00 78 1019.9
20260830153505 27 228 1.6 4.8 0.00 0.00 0.00 80 1019.9
20260830153246 28 71 1.6 8.0 0.00 0.00 0.00 76 1019.8
20260830152449 26 216 3.2 8.0 0.00 0.00 0.00 81 1019.9
20260830151946 26 210 3.2 9.7 0.00 0.00 0.00 81 1019.8
20260830151447 25 228 3.2 9.7 0.00 0.00 0.00 83 1019.8
20260830150946 25 237 1.6 8.0 0.00 0.00 0.00 83 1019.8
20260830150447 25 221 3.2 8.0 0.00 0.00 0.00 84 1019.8
20260830145944 25 183 0.0 3.2 0.00 0.00 0.00 86 1019.8
20260830145444 25 180 0.0 3.2 0.00 0.00 0.00 87 1019.8
20260830145007 24 282 0.0 8.0 0.00 0.00 0.00 88 1019.8
20260830144957 25 62 1.6 8.0 0.00 0.00 0.00 88 1019.8
20260830143941 24 358 1.6 3.2 0.00 0.00 0.00 88 1019.8
20260830143441 24 0 0.0 3.2 0.00 0.00 0.00 89 1019.8
20260830142935 24 0 0.0 3.2 0.00 0.00 0.00 89 1019.8
20260830142431 24 72 0.0 3.2 0.00 0.00 0.00 90 1019.9
20260830141931 24 87 0.0 1.6 0.00 0.00 0.00 90 1019.8
20260830141431 23 259 0.0 4.8 0.00 0.00 0.00 90 1019.8
20260830141238 23 141 0.0 3.2 0.00 0.00 0.00 91 1019.8
20260830141231 23 259 0.0 4.8 0.00 0.00 0.00 90 1019.8
20260830135931 23 141 0.0 4.8 0.00 0.00 0.00 90 1019.9
20260830135429 23 147 0.0 4.8 0.00 0.00 0.00 91 1019.9
20260830134930 23 62 0.0 4.8 0.00 0.00 0.00 91 1020.0
20260830134430 23 168 1.6 3.2 0.00 0.00 0.00 91 1020.1
20260830133930 23 117 0.0 4.8 0.00 0.00 0.00 91 1020.1
20260830133430 23 111 0.0 4.8 0.00 0.00 0.00 92 1020.2
20260830132929 23 217 1.6 4.8 0.00 0.00 0.00 92 1020.3
20260830132428 23 148 0.0 4.8 0.00 0.00 0.00 92 1020.3
20260830131928 23 142 1.6 4.8 0.00 0.00 0.00 92 1020.4
20260830131426 22 141 0.0 3.2 0.00 0.00 0.00 92 1020.4
20260830131204 22 140 0.0 4.8 0.00 0.00 0.00 92 1020.4
20260830130423 22 85 0.0 4.8 0.00 0.00 0.00 93 1020.4
20260830125922 22 72 1.6 4.8 0.00 0.00 0.00 93 1020.5
20260830125424 22 114 0.0 4.8 0.00 0.00 0.00 93 1020.4
20260830124924 22 206 0.0 4.8 0.00 0.00 0.00 94 1020.4
20260830124423 22 75 0.0 4.8 0.00 0.00 0.00 94 1020.5
20260830123922 22 173 0.0 3.2 0.00 0.00 0.00 94 1020.5
20260830123422 22 152 1.6 4.8 0.00 0.00 0.00 94 1020.5
20260830122922 22 300 1.6 4.8 0.00 0.00 0.00 94 1020.5
20260830122423 22 37 0.0 6.4 0.00 0.00 0.00 94 1020.6
20260830121923 22 37 0.0 6.4 0.00 0.00 0.00 95 1020.5
20260830121709 22 237 0.0 6.4 0.00 0.00 0.00 95 1020.5
20260830120922 21 44 0.0 6.4 0.00 0.00 0.00 95 1020.5
20260830120423 21 51 0.0 6.4 0.00 0.00 0.00 95 1020.5
20260830115921 21 137 0.0 3.2 0.00 0.00 0.00 95 1020.4
20260830115422 21 228 0.0 4.8 0.00 0.00 0.00 95 1020.3
20260830114921 21 293 0.0 4.8 0.00 0.00 0.00 95 1020.3
20260830114421 21 71 1.6 3.2 0.00 0.00 0.00 95 1020.3
20260830113920 21 71 1.6 11.3 0.00 0.00 0.00 95 1020.3
20260830113422 21 89 1.6 11.3 0.00 0.00 0.00 95 1020.4
20260830112920 21 233 0.0 4.8 0.00 0.00 0.00 95 1020.5
20260830112724 21 65 0.0 4.8 0.00 0.00 0.00 95 1020.5
20260830112437 21 228 1.6 4.8 0.00 0.00 0.00 95 1020.5
20260830111421 21 65 0.0 4.8 0.00 0.00 0.00 95 1020.6
20260830110920 21 89 0.0 4.8 0.00 0.00 0.00 95 1020.6
20260830110420 21 86 1.6 4.8 0.00 0.00 0.00 95 1020.6
20260830105920 21 85 0.0 3.2 0.00 0.00 0.00 95 1020.6
20260830105659 21 83 0.0 3.2 0.00 0.00 0.00 95 1020.7
20260830105204 21 83 0.0 3.2 0.00 0.00 0.00 94 1020.8
20260830104419 21 226 0.0 0.0 0.00 0.00 0.00 94 1020.6
20260830104201 21 226 0.0 1.6 0.00 0.00 0.00 94 1020.6
20260830103419 21 226 0.0 3.2 0.00 0.00 0.00 94 1020.5
20260830102944 21 230 1.6 6.4 0.00 0.00 0.00 94 1020.3
20260830102934 21 227 0.0 3.2 0.00 0.00 0.00 94 1020.5
20260830101919 21 85 0.0 6.4 0.00 0.00 0.00 94 1020.5
20260830101420 21 13 0.0 1.6 0.00 0.00 0.00 94 1020.3
20260830100918 21 13 0.0 1.6 0.00 0.00 0.00 94 1020.4
20260830100419 21 13 0.0 3.2 0.00 0.00 0.00 94 1020.4
20260830095918 21 13 0.0 3.2 0.00 0.00 0.00 94 1020.3
20260830095406 21 292 0.0 3.2 0.00 0.00 0.00 94 1020.4
20260830095144 21 327 0.0 4.8 0.00 0.00 0.00 94 1020.3
20260830094401 21 348 0.0 4.8 0.00 0.00 0.00 94 1020.3
20260830093900 21 337 0.0 0.0 0.00 0.00 0.00 94 1020.3
20260830093358 21 337 0.0 0.0 0.00 0.00 0.00 94 1020.3
20260830092856 21 337 0.0 6.4 0.00 0.00 0.00 94 1020.5
20260830092357 21 337 0.0 6.4 0.00 0.00 0.00 94 1020.3
20260830091854 21 56 0.0 0.0 0.00 0.00 0.00 94 1020.3
20260830091355 21 56 0.0 1.6 0.00 0.00 0.00 94 1020.2
20260830091134 21 56 0.0 1.6 0.00 0.00 0.00 94 1020.2
20260830090353 21 56 0.0 1.6 0.00 0.00 0.00 94 1020.4
20260830085849 21 56 0.0 1.6 0.00 0.00 0.00 94 1020.3
20260830085349 21 56 0.0 4.8 0.00 0.00 0.00 93 1020.3
20260830084850 21 56 0.0 4.8 0.00 0.00 0.00 93 1020.2
20260830084349 21 133 0.0 0.0 0.00 0.00 0.00 93 1020.2
20260830083835 21 133 0.0 0.0 0.00 0.00 0.00 93 1020.3
20260830083333 21 133 0.0 0.0 0.00 0.00 0.00 93 1020.3
20260830082832 21 133 0.0 0.0 0.00 0.00 0.00 93 1020.3
20260830082333 21 133 0.0 0.0 0.00 0.00 0.00 93 1020.3
20260830081818 21 133 0.0 0.0 0.00 0.00 0.00 93 1020.4
20260830081316 21 133 0.0 0.0 0.00 0.00 0.00 93 1020.4
20260830080816 21 133 0.0 0.0 0.00 0.00 0.00 93 1020.3
20260830080557 21 133 0.0 1.6 0.00 0.00 0.00 93 1020.3
20260830080055 20 133 0.0 1.6 0.00 0.00 0.00 93 1020.3
20260830075316 20 293 0.0 0.0 0.00 0.00 0.00 93 1020.3
20260830074815 20 293 0.0 0.0 0.00 0.00 0.00 93 1020.3
20260830074315 20 293 0.0 0.0 0.00 0.00 0.00 93 1020.3
20260830073815 20 293 0.0 0.0 0.00 0.00 0.00 93 1020.3
20260830073317 20 293 0.0 0.0 0.00 0.00 0.00 92 1020.4
20260830072815 20 293 0.0 0.0 0.00 0.00 0.00 92 1020.4
20260830072316 20 293 0.0 0.0 0.00 0.00 0.00 92 1020.4
20260830071815 20 293 0.0 0.0 0.00 0.00 0.00 92 1020.4
20260830071317 20 293 0.0 0.0 0.00 0.00 0.00 92 1020.4
20260830070816 20 293 0.0 0.0 0.00 0.00 0.00 91 1020.4
20260830070314 20 293 0.0 0.0 0.00 0.00 0.00 91 1020.6
20260830065814 20 293 0.0 0.0 0.00 0.00 0.00 91 1020.5
20260830065315 20 293 0.0 0.0 0.00 0.00 0.00 91 1020.6
20260830064815 20 293 0.0 0.0 0.00 0.00 0.00 90 1020.6
20260830064314 21 293 0.0 0.0 0.00 0.00 0.00 90 1020.6
20260830063815 21 293 0.0 0.0 0.00 0.00 0.00 90 1020.5
20260830063314 21 293 0.0 0.0 0.00 0.00 0.00 90 1020.6
20260830062815 21 293 0.0 0.0 0.00 0.00 0.00 90 1020.7
20260830062333 20 292 0.0 0.0 0.00 0.00 0.00 91 1020.7
20260830062326 20 293 0.0 0.0 0.00 0.00 0.00 91 1020.6
20260830061315 20 292 0.0 0.0 0.00 0.00 0.00 91 1020.8
20260830060814 20 292 0.0 0.0 0.00 0.00 0.00 91 1020.8
20260830060313 20 292 0.0 0.0 0.00 0.00 0.00 91 1020.9
20260830055814 20 292 0.0 0.0 0.00 0.00 0.00 91 1021.0
20260830055313 20 292 0.0 0.0 0.00 0.00 0.00 91 1021.1
20260830055054 20 292 0.0 0.0 0.00 0.00 0.00 91 1021.1
20260830054313 20 292 0.0 0.0 0.00 0.00 0.00 90 1021.1
20260830053813 20 292 0.0 0.0 0.00 0.00 0.00 90 1021.1
20260830053312 20 292 0.0 0.0 0.00 0.00 0.00 91 1021.1
20260830052813 20 292 0.0 0.0 0.00 0.00 0.00 91 1021.1
20260830052312 20 292 0.0 0.0 0.00 0.00 0.00 91 1021.1
20260830051812 20 292 0.0 0.0 0.00 0.00 0.00 91 1021.0
20260830051312 20 292 0.0 0.0 0.00 0.00 0.00 90 1021.0
20260830050812 20 292 0.0 0.0 0.00 0.00 0.00 90 1020.9
20260830050311 20 292 0.0 0.0 0.00 0.00 0.00 91 1021.0
20260830045812 20 292 0.0 0.0 0.00 0.00 0.00 91 1020.9
20260830045312 20 292 0.0 0.0 0.00 0.00 0.00 91 1020.9
20260830044812 20 292 0.0 0.0 0.00 0.00 0.00 91 1020.8
20260830044312 20 292 0.0 0.0 0.00 0.00 0.00 91 1020.8
20260830043809 20 292 0.0 0.0 0.00 0.00 0.00 91 1020.7
20260830043306 20 292 0.0 0.0 0.00 0.00 0.00 91 1020.8
20260830042806 20 292 0.0 0.0 0.00 0.00 0.00 91 1020.7